| time (UTC) | temp C | wind direction | speed KPH | gust KPH | rain 1hr cm | rain 24hr cm | rain mn cm | humidity % | barometer mb |
| 20260508143007 | 9 | 200 | 3.2 | 12.9 | 0.00 | 0.00 | 0.00 | 78 | 1018.5 |
| 20260508142006 | 9 | 220 | 0.0 | 9.7 | 0.00 | 0.00 | 0.00 | 78 | 1018.5 |
| 20260508141506 | 8 | 183 | 1.6 | 9.7 | 0.00 | 0.00 | 0.00 | 78 | 1018.5 |
| 20260508141006 | 8 | 195 | 1.6 | 9.7 | 0.00 | 0.00 | 0.00 | 78 | 1018.5 |
| 20260508140506 | 8 | 154 | 0.0 | 8.0 | 0.00 | 0.00 | 0.00 | 77 | 1018.5 |
| 20260508140006 | 8 | 192 | 0.0 | 3.2 | 0.00 | 0.00 | 0.00 | 76 | 1018.5 |
| 20260508135506 | 8 | 226 | 0.0 | 0.0 | 0.00 | 0.00 | 0.00 | 76 | 1018.5 |
| 20260508135007 | 8 | 215 | 0.0 | 0.0 | 0.00 | 0.00 | 0.00 | 75 | 1018.5 |
| 20260508134506 | 8 | 204 | 0.0 | 0.0 | 0.00 | 0.00 | 0.00 | 75 | 1017.5 |
| 20260508134006 | 8 | 238 | 0.0 | 0.0 | 0.00 | 0.00 | 0.00 | 73 | 1017.5 |
| 20260508133506 | 8 | 260 | 0.0 | 0.0 | 0.00 | 0.00 | 0.00 | 73 | 1017.5 |
| 20260508132505 | 8 | 260 | 0.0 | 0.0 | 0.00 | 0.00 | 0.00 | 72 | 1017.5 |
| 20260508132005 | 8 | 282 | 0.0 | 0.0 | 0.00 | 0.00 | 0.00 | 72 | 1017.5 |
| 20260508131506 | 9 | 282 | 0.0 | 0.0 | 0.00 | 0.00 | 0.00 | 72 | 1017.5 |
| 20260508130505 | 9 | 260 | 0.0 | 0.0 | 0.00 | 0.00 | 0.00 | 71 | 1017.5 |
| 20260508130006 | 9 | 260 | 0.0 | 0.0 | 0.00 | 0.00 | 0.00 | 71 | 1017.5 |
| 20260508125506 | 9 | 260 | 0.0 | 0.0 | 0.00 | 0.00 | 0.00 | 71 | 1017.5 |
| 20260508125006 | 9 | 260 | 0.0 | 0.0 | 0.00 | 0.00 | 0.00 | 71 | 1017.5 |
| 20260508124506 | 10 | 260 | 0.0 | 0.0 | 0.00 | 0.00 | 0.00 | 71 | 1017.5 |
| 20260508124006 | 10 | 260 | 0.0 | 0.0 | 0.00 | 0.00 | 0.00 | 71 | 1017.5 |
| 20260508123506 | 10 | 260 | 0.0 | 0.0 | 0.00 | 0.00 | 0.00 | 71 | 1017.5 |
| 20260508123006 | 10 | 260 | 0.0 | 0.0 | 0.00 | 0.00 | 0.00 | 70 | 1017.5 |
| 20260508122506 | 10 | 260 | 0.0 | 0.0 | 0.00 | 0.00 | 0.00 | 70 | 1017.5 |
| 20260508122006 | 10 | 260 | 0.0 | 0.0 | 0.00 | 0.00 | 0.00 | 70 | 1017.5 |
| 20260508121506 | 10 | 260 | 0.0 | 0.0 | 0.00 | 0.00 | 0.00 | 70 | 1017.5 |
| 20260508120505 | 10 | 260 | 0.0 | 0.0 | 0.00 | 0.00 | 0.00 | 70 | 1017.5 |
| 20260508120006 | 10 | 260 | 0.0 | 0.0 | 0.00 | 0.00 | 0.00 | 70 | 1016.5 |
| 20260508115506 | 10 | 290 | 0.0 | 0.0 | 0.00 | 0.00 | 0.00 | 69 | 1016.5 |
| 20260508115005 | 10 | 253 | 0.0 | 0.0 | 0.00 | 0.00 | 0.00 | 69 | 1016.5 |
| 20260508114505 | 10 | 279 | 0.0 | 0.0 | 0.00 | 0.00 | 0.00 | 69 | 1016.5 |
| 20260508114005 | 10 | 263 | 0.0 | 8.0 | 0.00 | 0.00 | 0.00 | 69 | 1016.5 |
| 20260508113505 | 10 | 275 | 0.0 | 8.0 | 0.00 | 0.00 | 0.00 | 69 | 1016.5 |
| 20260508113006 | 10 | 282 | 0.0 | 8.0 | 0.00 | 0.00 | 0.00 | 69 | 1016.5 |
| 20260508112506 | 10 | 260 | 0.0 | 0.0 | 0.00 | 0.00 | 0.00 | 69 | 1016.5 |
| 20260508112006 | 10 | 271 | 0.0 | 0.0 | 0.00 | 0.00 | 0.00 | 69 | 1016.5 |
| 20260508111505 | 10 | 246 | 0.0 | 0.0 | 0.00 | 0.00 | 0.00 | 69 | 1016.5 |
| 20260508111006 | 10 | 252 | 0.0 | 0.0 | 0.00 | 0.00 | 0.00 | 69 | 1016.5 |
| 20260508110505 | 10 | 238 | 0.0 | 0.0 | 0.00 | 0.00 | 0.00 | 69 | 1016.5 |
| 20260508110006 | 10 | 260 | 0.0 | 0.0 | 0.00 | 0.00 | 0.00 | 69 | 1016.5 |
| 20260508105005 | 10 | 259 | 0.0 | 0.0 | 0.00 | 0.00 | 0.00 | 69 | 1016.5 |
| 20260508104505 | 10 | 260 | 0.0 | 0.0 | 0.00 | 0.00 | 0.00 | 69 | 1016.5 |
| 20260508104006 | 10 | 260 | 0.0 | 0.0 | 0.00 | 0.00 | 0.00 | 69 | 1016.5 |
| 20260508103006 | 11 | 260 | 0.0 | 0.0 | 0.00 | 0.00 | 0.00 | 68 | 1016.5 |
| 20260508102506 | 11 | 249 | 0.0 | 0.0 | 0.00 | 0.00 | 0.00 | 68 | 1016.5 |
| 20260508102005 | 11 | 282 | 0.0 | 0.0 | 0.00 | 0.00 | 0.00 | 68 | 1016.5 |
| 20260508101506 | 11 | 282 | 0.0 | 0.0 | 0.00 | 0.00 | 0.00 | 67 | 1016.5 |
| 20260508101006 | 11 | 282 | 0.0 | 0.0 | 0.00 | 0.00 | 0.00 | 67 | 1016.5 |
| 20260508100506 | 11 | 282 | 0.0 | 0.0 | 0.00 | 0.00 | 0.00 | 67 | 1016.5 |
| 20260508100005 | 11 | 282 | 0.0 | 0.0 | 0.00 | 0.00 | 0.00 | 66 | 1016.5 |
| 20260508095506 | 11 | 282 | 0.0 | 0.0 | 0.00 | 0.00 | 0.00 | 66 | 1016.5 |
| 20260508095006 | 11 | 282 | 0.0 | 0.0 | 0.00 | 0.00 | 0.00 | 66 | 1016.5 |
| 20260508094506 | 11 | 282 | 0.0 | 0.0 | 0.00 | 0.00 | 0.00 | 66 | 1016.5 |
| 20260508094005 | 11 | 282 | 0.0 | 0.0 | 0.00 | 0.00 | 0.00 | 66 | 1016.5 |
| 20260508093505 | 11 | 282 | 0.0 | 0.0 | 0.00 | 0.00 | 0.00 | 65 | 1016.5 |
| 20260508093006 | 11 | 282 | 0.0 | 0.0 | 0.00 | 0.00 | 0.00 | 65 | 1016.5 |
| 20260508092505 | 11 | 282 | 0.0 | 0.0 | 0.00 | 0.00 | 0.00 | 64 | 1016.5 |
| 20260508092005 | 11 | 282 | 0.0 | 0.0 | 0.00 | 0.00 | 0.00 | 63 | 1016.5 |
| 20260508091506 | 11 | 282 | 0.0 | 0.0 | 0.00 | 0.00 | 0.00 | 62 | 1016.5 |
| 20260508091005 | 11 | 282 | 0.0 | 0.0 | 0.00 | 0.00 | 0.00 | 62 | 1016.5 |
| 20260508090505 | 11 | 282 | 0.0 | 0.0 | 0.00 | 0.00 | 0.00 | 61 | 1016.5 |
| 20260508090005 | 11 | 282 | 0.0 | 0.0 | 0.00 | 0.00 | 0.00 | 61 | 1015.5 |
| 20260508085005 | 11 | 282 | 0.0 | 0.0 | 0.00 | 0.00 | 0.00 | 60 | 1015.5 |
| 20260508084505 | 12 | 282 | 0.0 | 0.0 | 0.00 | 0.00 | 0.00 | 59 | 1015.5 |
| 20260508084005 | 12 | 282 | 0.0 | 0.0 | 0.00 | 0.00 | 0.00 | 59 | 1015.5 |
| 20260508083505 | 12 | 282 | 0.0 | 0.0 | 0.00 | 0.00 | 0.00 | 58 | 1015.5 |
| 20260508083005 | 12 | 282 | 0.0 | 0.0 | 0.00 | 0.00 | 0.00 | 58 | 1015.5 |
| 20260508082505 | 12 | 282 | 0.0 | 0.0 | 0.00 | 0.00 | 0.00 | 57 | 1015.5 |
| 20260508082006 | 12 | 282 | 0.0 | 0.0 | 0.00 | 0.00 | 0.00 | 57 | 1015.5 |
| 20260508081505 | 12 | 282 | 0.0 | 0.0 | 0.00 | 0.00 | 0.00 | 57 | 1015.5 |
| 20260508080005 | 12 | 282 | 0.0 | 0.0 | 0.00 | 0.00 | 0.00 | 56 | 1015.5 |
| 20260508075506 | 12 | 282 | 0.0 | 0.0 | 0.00 | 0.00 | 0.00 | 55 | 1015.5 |
| 20260508074005 | 13 | 282 | 0.0 | 0.0 | 0.00 | 0.00 | 0.00 | 54 | 1014.5 |
| 20260508073005 | 13 | 282 | 0.0 | 0.0 | 0.00 | 0.00 | 0.00 | 54 | 1015.5 |
| 20260508072005 | 13 | 282 | 0.0 | 0.0 | 0.00 | 0.00 | 0.00 | 53 | 1015.5 |
| 20260508071505 | 13 | 282 | 0.0 | 0.0 | 0.00 | 0.00 | 0.00 | 53 | 1015.5 |
| 20260508071005 | 13 | 282 | 0.0 | 0.0 | 0.00 | 0.00 | 0.00 | 53 | 1015.5 |
| 20260508070505 | 13 | 282 | 0.0 | 0.0 | 0.00 | 0.00 | 0.00 | 53 | 1015.5 |
| 20260508070005 | 13 | 282 | 0.0 | 0.0 | 0.00 | 0.00 | 0.00 | 52 | 1015.5 |
| 20260508065506 | 13 | 282 | 0.0 | 0.0 | 0.00 | 0.00 | 0.00 | 52 | 1015.5 |
| 20260508065005 | 13 | 282 | 0.0 | 0.0 | 0.00 | 0.00 | 0.00 | 52 | 1015.5 |
| 20260508064505 | 13 | 282 | 0.0 | 0.0 | 0.00 | 0.00 | 0.00 | 52 | 1015.5 |
| 20260508064005 | 13 | 282 | 0.0 | 0.0 | 0.00 | 0.00 | 0.00 | 51 | 1015.5 |
| 20260508063505 | 13 | 282 | 0.0 | 0.0 | 0.00 | 0.00 | 0.00 | 51 | 1015.5 |
| 20260508063006 | 14 | 282 | 0.0 | 0.0 | 0.00 | 0.00 | 0.00 | 51 | 1015.5 |
| 20260508062505 | 14 | 282 | 0.0 | 0.0 | 0.00 | 0.00 | 0.00 | 51 | 1015.5 |
| 20260508061506 | 14 | 282 | 0.0 | 0.0 | 0.00 | 0.00 | 0.00 | 50 | 1015.5 |
| 20260508060005 | 14 | 282 | 0.0 | 0.0 | 0.00 | 0.00 | 0.00 | 50 | 1015.5 |
| 20260508055505 | 14 | 282 | 0.0 | 0.0 | 0.00 | 0.00 | 0.00 | 50 | 1015.5 |
| 20260508055005 | 15 | 282 | 0.0 | 0.0 | 0.00 | 0.00 | 0.00 | 49 | 1015.5 |
| 20260508054505 | 15 | 282 | 0.0 | 0.0 | 0.00 | 0.00 | 0.00 | 49 | 1015.5 |
| 20260508054005 | 15 | 282 | 0.0 | 0.0 | 0.00 | 0.00 | 0.00 | 48 | 1015.5 |
| 20260508053505 | 15 | 282 | 0.0 | 0.0 | 0.00 | 0.00 | 0.00 | 48 | 1015.5 |
| 20260508053005 | 15 | 282 | 0.0 | 0.0 | 0.00 | 0.00 | 0.00 | 48 | 1015.5 |
| 20260508052005 | 15 | 282 | 0.0 | 0.0 | 0.00 | 0.00 | 0.00 | 47 | 1015.5 |
| 20260508051504 | 15 | 282 | 0.0 | 0.0 | 0.00 | 0.00 | 0.00 | 47 | 1015.5 |
| 20260508051005 | 15 | 282 | 0.0 | 0.0 | 0.00 | 0.00 | 0.00 | 47 | 1015.5 |
| 20260508050505 | 15 | 282 | 0.0 | 0.0 | 0.00 | 0.00 | 0.00 | 46 | 1015.5 |
| 20260508050004 | 15 | 282 | 0.0 | 0.0 | 0.00 | 0.00 | 0.00 | 46 | 1015.5 |
| 20260508045505 | 15 | 282 | 0.0 | 0.0 | 0.00 | 0.00 | 0.00 | 46 | 1015.5 |
| 20260508045004 | 15 | 282 | 0.0 | 0.0 | 0.00 | 0.00 | 0.00 | 46 | 1015.5 |
| 20260508044505 | 15 | 282 | 0.0 | 0.0 | 0.00 | 0.00 | 0.00 | 46 | 1015.5 |
| 20260508044005 | 15 | 282 | 0.0 | 0.0 | 0.00 | 0.00 | 0.00 | 46 | 1015.5 |
| 20260508043505 | 15 | 305 | 0.0 | 0.0 | 0.00 | 0.00 | 0.00 | 46 | 1015.5 |
| 20260508043005 | 15 | 305 | 0.0 | 0.0 | 0.00 | 0.00 | 0.00 | 46 | 1015.5 |
| 20260508042504 | 16 | 305 | 0.0 | 0.0 | 0.00 | 0.00 | 0.00 | 46 | 1015.5 |
| 20260508042005 | 16 | 305 | 0.0 | 0.0 | 0.00 | 0.00 | 0.00 | 45 | 1015.5 |
| 20260508041505 | 16 | 305 | 0.0 | 0.0 | 0.00 | 0.00 | 0.00 | 45 | 1015.5 |
| 20260508041005 | 16 | 305 | 0.0 | 0.0 | 0.00 | 0.00 | 0.00 | 45 | 1015.5 |
| 20260508040005 | 16 | 305 | 0.0 | 0.0 | 0.00 | 0.00 | 0.00 | 45 | 1015.5 |
| 20260508035504 | 16 | 305 | 0.0 | 0.0 | 0.00 | 0.00 | 0.00 | 45 | 1015.5 |
| 20260508035008 | 16 | 305 | 0.0 | 0.0 | 0.00 | 0.00 | 0.00 | 45 | 1015.5 |
| 20260508034504 | 16 | 305 | 0.0 | 0.0 | 0.00 | 0.00 | 0.00 | 45 | 1014.5 |
| 20260508034004 | 16 | 305 | 0.0 | 0.0 | 0.00 | 0.00 | 0.00 | 45 | 1014.5 |
| 20260508033505 | 16 | 305 | 0.0 | 0.0 | 0.00 | 0.00 | 0.00 | 45 | 1014.5 |
| 20260508033004 | 16 | 305 | 0.0 | 0.0 | 0.00 | 0.00 | 0.00 | 46 | 1013.5 |
| 20260508032005 | 16 | 282 | 0.0 | 0.0 | 0.00 | 0.00 | 0.00 | 46 | 1013.5 |
| 20260508031504 | 16 | 282 | 0.0 | 0.0 | 0.00 | 0.00 | 0.00 | 46 | 1014.5 |
| 20260508031005 | 17 | 282 | 0.0 | 0.0 | 0.00 | 0.00 | 0.00 | 45 | 1014.5 |
| 20260508030505 | 17 | 282 | 0.0 | 0.0 | 0.00 | 0.00 | 0.00 | 45 | 1014.5 |
| 20260508030004 | 17 | 282 | 0.0 | 0.0 | 0.00 | 0.00 | 0.00 | 46 | 1013.5 |
| 20260508025505 | 17 | 282 | 0.0 | 0.0 | 0.00 | 0.00 | 0.00 | 46 | 1013.5 |
| 20260508025004 | 17 | 282 | 0.0 | 0.0 | 0.00 | 0.00 | 0.00 | 46 | 1013.5 |
| 20260508024505 | 17 | 282 | 0.0 | 0.0 | 0.00 | 0.00 | 0.00 | 45 | 1014.5 |
| 20260508024004 | 17 | 282 | 0.0 | 0.0 | 0.00 | 0.00 | 0.00 | 45 | 1014.5 |
| 20260508023504 | 17 | 260 | 0.0 | 0.0 | 0.00 | 0.00 | 0.00 | 46 | 1014.5 |
| 20260508023005 | 18 | 260 | 0.0 | 0.0 | 0.00 | 0.00 | 0.00 | 45 | 1014.5 |
| 20260508022505 | 18 | 260 | 0.0 | 0.0 | 0.00 | 0.00 | 0.00 | 45 | 1014.5 |
| 20260508021005 | 18 | 182 | 0.0 | 0.0 | 0.00 | 0.00 | 0.00 | 45 | 1014.5 |
| 20260508020505 | 18 | 58 | 0.0 | 0.0 | 0.00 | 0.00 | 0.00 | 45 | 1014.5 |
| 20260508020006 | 18 | 58 | 0.0 | 0.0 | 0.00 | 0.00 | 0.00 | 45 | 1014.5 |
| 20260508015005 | 18 | 58 | 0.0 | 0.0 | 0.00 | 0.00 | 0.00 | 45 | 1014.5 |
| 20260508014504 | 18 | 54 | 0.0 | 0.0 | 0.00 | 0.00 | 0.00 | 44 | 1014.5 |
| 20260508014004 | 18 | 35 | 0.0 | 0.0 | 0.00 | 0.00 | 0.00 | 44 | 1014.5 |
| 20260508013005 | 18 | 305 | 0.0 | 0.0 | 0.00 | 0.00 | 0.00 | 44 | 1015.5 |
| 20260508012505 | 19 | 305 | 0.0 | 0.0 | 0.00 | 0.00 | 0.00 | 44 | 1015.5 |
| 20260508012004 | 19 | 305 | 0.0 | 4.8 | 0.00 | 0.00 | 0.00 | 44 | 1015.5 |
| 20260508011504 | 19 | 305 | 0.0 | 4.8 | 0.00 | 0.00 | 0.00 | 44 | 1015.5 |
| 20260508011004 | 19 | 76 | 0.0 | 0.0 | 0.00 | 0.00 | 0.00 | 44 | 1015.5 |
| 20260508010505 | 19 | 58 | 0.0 | 0.0 | 0.00 | 0.00 | 0.00 | 44 | 1015.5 |
| 20260508010005 | 19 | 35 | 0.0 | 3.2 | 0.00 | 0.00 | 0.00 | 44 | 1015.5 |
| 20260508005504 | 19 | 43 | 1.6 | 8.0 | 0.00 | 0.00 | 0.00 | 44 | 1015.5 |
| 20260508004504 | 19 | 25 | 0.0 | 0.0 | 0.00 | 0.00 | 0.00 | 44 | 1015.5 |
| 20260508004004 | 20 | 202 | 0.0 | 0.0 | 0.00 | 0.00 | 0.00 | 44 | 1015.5 |
| 20260508003005 | 20 | 35 | 0.0 | 0.0 | 0.00 | 0.00 | 0.00 | 44 | 1015.5 |
| 20260508002504 | 20 | 119 | 0.0 | 0.0 | 0.00 | 0.00 | 0.00 | 43 | 1015.5 |
| 20260508002004 | 20 | 91 | 0.0 | 0.0 | 0.00 | 0.00 | 0.00 | 43 | 1015.5 |
| 20260508000004 | 20 | 305 | 0.0 | 0.0 | 0.00 | 0.00 | 0.00 | 42 | 1016.5 |
| 20260507235504 | 20 | 305 | 0.0 | 0.0 | 0.00 | 0.00 | 0.00 | 43 | 1016.5 |
| 20260507235004 | 20 | 260 | 0.0 | 0.0 | 0.00 | 0.00 | 0.00 | 42 | 1016.5 |
| 20260507234504 | 20 | 125 | 0.0 | 0.0 | 0.00 | 0.00 | 0.00 | 43 | 1016.5 |
| 20260507233004 | 20 | 225 | 0.0 | 0.0 | 0.00 | 0.00 | 0.00 | 43 | 1016.5 |
| 20260507232503 | 20 | 305 | 0.0 | 0.0 | 0.00 | 0.00 | 0.00 | 43 | 1016.5 |
| 20260507231504 | 20 | 136 | 0.0 | 0.0 | 0.00 | 0.00 | 0.00 | 43 | 1016.5 |
| 20260507231004 | 20 | 305 | 0.0 | 3.2 | 0.00 | 0.00 | 0.00 | 44 | 1016.5 |
| 20260507230504 | 21 | 36 | 0.0 | 3.2 | 0.00 | 0.00 | 0.00 | 44 | 1016.5 |
| 20260507230005 | 21 | 129 | 0.0 | 0.0 | 0.00 | 0.00 | 0.00 | 44 | 1016.5 |
| 20260507225004 | 21 | 226 | 0.0 | 0.0 | 0.00 | 0.00 | 0.00 | 45 | 1016.5 |
| 20260507224004 | 20 | 185 | 0.0 | 0.0 | 0.00 | 0.00 | 0.00 | 45 | 1015.5 |
| 20260507223004 | 20 | 69 | 0.0 | 0.0 | 0.00 | 0.00 | 0.00 | 47 | 1016.5 |
| 20260507222505 | 20 | 247 | 0.0 | 9.7 | 0.00 | 0.00 | 0.00 | 46 | 1016.5 |
| 20260507222004 | 20 | 165 | 1.6 | 9.7 | 0.00 | 0.00 | 0.00 | 47 | 1016.5 |
| 20260507221504 | 20 | 291 | 0.0 | 3.2 | 0.00 | 0.00 | 0.00 | 47 | 1016.5 |
| 20260507221005 | 20 | 35 | 0.0 | 9.7 | 0.00 | 0.00 | 0.00 | 47 | 1016.5 |
| 20260507220505 | 20 | 86 | 0.0 | 9.7 | 0.00 | 0.00 | 0.00 | 48 | 1016.5 |
| 20260507220004 | 20 | 35 | 0.0 | 9.7 | 0.00 | 0.00 | 0.00 | 48 | 1016.5 |
| 20260507215005 | 20 | 275 | 0.0 | 0.0 | 0.00 | 0.00 | 0.00 | 48 | 1016.5 |
| 20260507214503 | 20 | 283 | 0.0 | 3.2 | 0.00 | 0.00 | 0.00 | 49 | 1016.5 |
| 20260507214004 | 20 | 215 | 0.0 | 3.2 | 0.00 | 0.00 | 0.00 | 48 | 1016.5 |
| 20260507213004 | 19 | 251 | 0.0 | 3.2 | 0.00 | 0.00 | 0.00 | 50 | 1017.5 |
| 20260507212504 | 19 | 350 | 0.0 | 3.2 | 0.00 | 0.00 | 0.00 | 51 | 1017.5 |
| 20260507211504 | 18 | 109 | 0.0 | 3.2 | 0.00 | 0.00 | 0.00 | 50 | 1017.5 |
| 20260507211003 | 19 | 235 | 0.0 | 0.0 | 0.00 | 0.00 | 0.00 | 50 | 1017.5 |
| 20260507210005 | 18 | 282 | 0.0 | 9.7 | 0.00 | 0.00 | 0.00 | 53 | 1017.5 |
| 20260507205504 | 18 | 316 | 0.0 | 11.3 | 0.00 | 0.00 | 0.00 | 54 | 1017.5 |
| 20260507205004 | 18 | 305 | 0.0 | 11.3 | 0.00 | 0.00 | 0.00 | 54 | 1017.5 |
| 20260507204004 | 18 | 306 | 1.6 | 9.7 | 0.00 | 0.00 | 0.00 | 54 | 1017.5 |
| 20260507203503 | 18 | 73 | 3.2 | 9.7 | 0.00 | 0.00 | 0.00 | 57 | 1017.5 |
| 20260507202503 | 17 | 289 | 1.6 | 11.3 | 0.00 | 0.00 | 0.00 | 57 | 1017.5 |
| 20260507202004 | 17 | 305 | 0.0 | 11.3 | 0.00 | 0.00 | 0.00 | 59 | 1017.5 |
| 20260507201504 | 17 | 194 | 1.6 | 9.7 | 0.00 | 0.00 | 0.00 | 59 | 1017.5 |
| 20260507201003 | 17 | 230 | 0.0 | 9.7 | 0.00 | 0.00 | 0.00 | 59 | 1017.5 |
| 20260507200503 | 17 | 110 | 4.8 | 9.7 | 0.00 | 0.00 | 0.00 | 58 | 1017.5 |
| 20260507195504 | 17 | 259 | 0.0 | 3.2 | 0.00 | 0.00 | 0.00 | 61 | 1017.5 |
| 20260507195004 | 17 | 215 | 0.0 | 3.2 | 0.00 | 0.00 | 0.00 | 62 | 1017.5 |
| 20260507194504 | 17 | 228 | 0.0 | 8.0 | 0.00 | 0.00 | 0.00 | 61 | 1017.5 |
| 20260507194004 | 16 | 94 | 0.0 | 11.3 | 0.00 | 0.00 | 0.00 | 62 | 1017.5 |
| 20260507193504 | 16 | 103 | 3.2 | 11.3 | 0.00 | 0.00 | 0.00 | 61 | 1017.5 |
| 20260507193007 | 16 | 85 | 3.2 | 11.3 | 0.00 | 0.00 | 0.00 | 63 | 1018.5 |
| 20260507192507 | 16 | 226 | 3.2 | 9.7 | 0.00 | 0.00 | 0.00 | 63 | 1018.5 |
| 20260507192006 | 16 | 148 | 0.0 | 8.0 | 0.00 | 0.00 | 0.00 | 63 | 1018.5 |
| 20260507191506 | 16 | 69 | 0.0 | 12.9 | 0.00 | 0.00 | 0.00 | 64 | 1018.5 |
| 20260507191007 | 16 | 168 | 1.6 | 12.9 | 0.00 | 0.00 | 0.00 | 64 | 1018.5 |
| 20260507190507 | 15 | 143 | 1.6 | 11.3 | 0.00 | 0.00 | 0.00 | 64 | 1018.5 |
| 20260507190007 | 15 | 165 | 1.6 | 11.3 | 0.00 | 0.00 | 0.00 | 66 | 1018.5 |
| 20260507185508 | 15 | 296 | 0.0 | 9.7 | 0.00 | 0.00 | 0.00 | 65 | 1018.5 |
| 20260507185007 | 15 | 218 | 3.2 | 9.7 | 0.00 | 0.00 | 0.00 | 66 | 1018.5 |
| 20260507184506 | 15 | 107 | 0.0 | 4.8 | 0.00 | 0.00 | 0.00 | 66 | 1018.5 |
| 20260507184006 | 15 | 238 | 0.0 | 4.8 | 0.00 | 0.00 | 0.00 | 67 | 1018.5 |
| 20260507183506 | 15 | 273 | 1.6 | 12.9 | 0.00 | 0.00 | 0.00 | 68 | 1018.5 |
| 20260507183006 | 15 | 119 | 4.8 | 12.9 | 0.00 | 0.00 | 0.00 | 68 | 1018.5 |
| 20260507182007 | 14 | 196 | 0.0 | 9.7 | 0.00 | 0.00 | 0.00 | 68 | 1018.5 |
| 20260507181506 | 14 | 307 | 1.6 | 8.0 | 0.00 | 0.00 | 0.00 | 69 | 1018.5 |
| 20260507181006 | 14 | 145 | 0.0 | 3.2 | 0.00 | 0.00 | 0.00 | 69 | 1018.5 |
| 20260507180506 | 13 | 282 | 0.0 | 8.0 | 0.00 | 0.00 | 0.00 | 69 | 1018.5 |
| 20260507180006 | 14 | 158 | 1.6 | 8.0 | 0.00 | 0.00 | 0.00 | 69 | 1018.5 |
| 20260507175507 | 13 | 248 | 0.0 | 3.2 | 0.00 | 0.00 | 0.00 | 70 | 1018.5 |
| 20260507175008 | 13 | 56 | 0.0 | 8.0 | 0.00 | 0.00 | 0.00 | 70 | 1018.5 |
| 20260507174506 | 13 | 127 | 0.0 | 8.0 | 0.00 | 0.00 | 0.00 | 70 | 1018.5 |
| 20260507174006 | 13 | 83 | 0.0 | 8.0 | 0.00 | 0.00 | 0.00 | 71 | 1018.5 |
| 20260507173507 | 13 | 80 | 1.6 | 9.7 | 0.00 | 0.00 | 0.00 | 71 | 1018.5 |
| 20260507173006 | 13 | 301 | 1.6 | 9.7 | 0.00 | 0.00 | 0.00 | 71 | 1018.5 |
| 20260507172506 | 13 | 35 | 1.6 | 9.7 | 0.00 | 0.00 | 0.00 | 72 | 1018.5 |
| 20260507172007 | 12 | 329 | 1.6 | 9.7 | 0.00 | 0.00 | 0.00 | 71 | 1018.5 |
| 20260507171506 | 12 | 173 | 0.0 | 12.9 | 0.00 | 0.00 | 0.00 | 72 | 1017.5 |
| 20260507171006 | 12 | 42 | 3.2 | 12.9 | 0.00 | 0.00 | 0.00 | 72 | 1017.5 |
| 20260507170507 | 12 | 72 | 0.0 | 12.9 | 0.00 | 0.00 | 0.00 | 73 | 1017.5 |
| 20260507170006 | 12 | 122 | 3.2 | 12.9 | 0.00 | 0.00 | 0.00 | 74 | 1018.5 |
| 20260507165506 | 12 | 18 | 0.0 | 8.0 | 0.00 | 0.00 | 0.00 | 74 | 1018.5 |
| 20260507165006 | 12 | 45 | 1.6 | 9.7 | 0.00 | 0.00 | 0.00 | 73 | 1018.5 |
| 20260507164506 | 11 | 205 | 1.6 | 9.7 | 0.00 | 0.00 | 0.00 | 74 | 1018.5 |
| 20260507164006 | 12 | 116 | 0.0 | 9.7 | 0.00 | 0.00 | 0.00 | 74 | 1018.5 |
| 20260507163506 | 11 | 305 | 0.0 | 3.2 | 0.00 | 0.00 | 0.00 | 74 | 1018.5 |
| 20260507163006 | 11 | 102 | 0.0 | 3.2 | 0.00 | 0.00 | 0.00 | 74 | 1018.5 |
| 20260507162506 | 11 | 167 | 0.0 | 3.2 | 0.00 | 0.00 | 0.00 | 75 | 1018.5 |
| 20260507162006 | 11 | 110 | 0.0 | 3.2 | 0.00 | 0.00 | 0.00 | 74 | 1018.5 |
| 20260507161506 | 11 | 66 | 0.0 | 3.2 | 0.00 | 0.00 | 0.00 | 74 | 1018.5 |
| 20260507160506 | 11 | 335 | 0.0 | 0.0 | 0.00 | 0.00 | 0.00 | 74 | 1018.5 |
| 20260507155006 | 11 | 66 | 0.0 | 0.0 | 0.00 | 0.00 | 0.00 | 75 | 1018.5 |
| 20260507154506 | 11 | 10 | 0.0 | 9.7 | 0.00 | 0.00 | 0.00 | 75 | 1018.5 |
| 20260507154008 | 11 | 38 | 1.6 | 9.7 | 0.00 | 0.00 | 0.00 | 76 | 1018.5 |
| 20260507153506 | 10 | 42 | 0.0 | 0.0 | 0.00 | 0.00 | 0.00 | 76 | 1018.5 |
| 20260507153006 | 10 | 70 | 0.0 | 0.0 | 0.00 | 0.00 | 0.00 | 76 | 1018.5 |
| 20260507152506 | 10 | 35 | 0.0 | 9.7 | 0.00 | 0.00 | 0.00 | 76 | 1018.5 |
| 20260507152006 | 10 | 43 | 1.6 | 9.7 | 0.00 | 0.00 | 0.00 | 76 | 1018.5 |
| 20260507151506 | 10 | 305 | 0.0 | 8.0 | 0.00 | 0.00 | 0.00 | 77 | 1018.5 |
| 20260507151006 | 10 | 83 | 0.0 | 8.0 | 0.00 | 0.00 | 0.00 | 77 | 1018.5 |
| 20260507150506 | 10 | 282 | 0.0 | 0.0 | 0.00 | 0.00 | 0.00 | 77 | 1018.5 |
| 20260507150006 | 10 | 63 | 0.0 | 0.0 | 0.00 | 0.00 | 0.00 | 76 | 1018.5 |
| 20260507145508 | 10 | 42 | 0.0 | 3.2 | 0.00 | 0.00 | 0.00 | 77 | 1018.5 |
| 20260507145006 | 10 | 64 | 0.0 | 3.2 | 0.00 | 0.00 | 0.00 | 77 | 1018.5 |
| 20260507144506 | 10 | 106 | 0.0 | 0.0 | 0.00 | 0.00 | 0.00 | 77 | 1018.5 |
| 20260507144006 | 10 | 91 | 0.0 | 8.0 | 0.00 | 0.00 | 0.00 | 77 | 1018.5 |
| 20260507143506 | 10 | 51 | 0.0 | 8.0 | 0.00 | 0.00 | 0.00 | 77 | 1018.5 |